[[{"header":{"parameterUnit":"m.s-1","parameterCategory":1,"la1":30.2991,"la2":30.254,"lo1":-89.0895,"lo2":-89.0444,"dy":0.0017,"dx":0.0017,"nx":28,"ny":28,"refTime":"2023-08-01T03:00:00:Z","depth":0,"parameterNumber":2,"parameterNumberName":"U-component_of_WINDS"},"data":[0,0,0,0,0,0,0,0,0,0,0,0,0,0,0,0,0,0,0,0,0,0,0,0,0,0,0,0,0,0,0,0,0,0,0,0,0,0,0,0,0,0,0,0,0,0,0,0,0,0,0,0,0,0,0,0,0,0,0.2875,0.2876,0,0.2993,0.2994,0.2996,0.3048,0.3047,0.3047,0.3047,0.3169,0.3173,0.3176,0,0,0,0,0,0,0,0,0,0,0,0,0,0.2694,0.2697,0.2875,0.2876,0.2878,0.2993,0.2994,0.2996,0.3048,0.3047,0.3047,0.3047,0.3168,0.3172,0.3176,0,0,0,0,0,0,0,0,0,0,0,0,0,0.2788,0.2698,0.2875,0.2918,0.2923,0.2992,0.2994,0.2996,0.3048,0.3047,0.3047,0.3047,0.3167,0.3172,0.3177,0.3213,0,0,0.3193,0.3195,0,0,0,0,0,0,0,0,0.2783,0.2795,0.291,0.2915,0.292,0.3005,0.2975,0.3069,0.3048,0.3,0.3047,0.3047,0.3115,0.3124,0.3147,0.3219,0.3224,0.3193,0.3196,0.3198,0.32,0,0,0,0,0,0,0,0.2777,0.279,0.2922,0.2911,0.2918,0.2931,0.2944,0.2993,0.3058,0.3004,0.3008,0.3022,0.3118,0.3142,0.315,0.3226,0.3193,0.3197,0.3201,0.3203,0.3332,0.3332,0,0,0,0,0,0,0.2763,0.2785,0.2918,0.2925,0.285,0.2934,0.2949,0.2978,0.3057,0.3069,0.3022,0.3024,0.3133,0.3144,0.3155,0.3202,0.3198,0.3203,0.3206,0.3332,0.3332,0.3332,0,0,0,0,0,0,0.2759,0.2774,0.2913,0.2856,0.2875,0.2938,0.297,0.2981,0.3005,0.307,0.3082,0.3035,0.3134,0.3148,0.3198,0.3207,0.3205,0.321,0.3331,0.3332,0.3332,0.3296,0,0,0,0,0,0,0.2753,0.2773,0.2787,0.2856,0.2878,0.2954,0.2971,0.2983,0.3014,0.3017,0.3086,0.3097,0.3135,0.319,0.3203,0.3214,0.3214,0.3331,0.3331,0.3332,0.3297,0.3295,0.3294,0,0,0,0,0,0.2747,0.2773,0.2788,0.2804,0.2897,0.2955,0.2967,0.301,0.3014,0.3029,0.3071,0.3094,0.3203,0.3195,0.321,0.3222,0.333,0.3331,0.3332,0.3297,0.3296,0.3294,0,0,0,0,0,0,0.2705,0.2783,0.28,0.285,0.2895,0.2963,0.2984,0.3007,0.3053,0.3054,0.3105,0.312,0.3166,0.3199,0.3188,0.326,0.3269,0.3273,0.3237,0.3236,0.3235,0.3226,0.3218,0,0,0,0,0,0.2701,0.2741,0.2808,0.2845,0.2866,0.2921,0.2948,0.2976,0.3026,0.3045,0.3091,0.3138,0.3183,0.3211,0.3256,0.3301,0.3317,0.3317,0.3316,0.3314,0.3317,0.3342,0.3343,0.3335,0.3335,0.3335,0,0,0.2695,0.2742,0.2765,0.2837,0.2876,0.2916,0.2937,0.2979,0.3009,0.3052,0.3102,0.3136,0.3192,0.324,0.3263,0.3269,0.3322,0.3315,0.3314,0.3318,0.3343,0.3344,0.3344,0.3336,0.3336,0.3335,0,0,0.2703,0.2743,0.2778,0.2815,0.2873,0.2909,0.2917,0.2981,0.3006,0.3056,0.3089,0.3125,0.3201,0.3239,0.3269,0.3288,0.3311,0.3301,0.3295,0.3318,0.3319,0.332,0.3326,0.3328,0.3304,0.3304,0.3304,0,0.2688,0.2749,0.2793,0.2832,0.2863,0.2902,0.2937,0.2972,0.3041,0.3061,0.3067,0.3162,0.3202,0.3258,0.3263,0.3285,0.3296,0.3294,0.3315,0.3316,0.3318,0.3324,0.3327,0.3302,0.3302,0.3302,0.3303,0,0.2727,0.2769,0.279,0.2854,0.2887,0.2924,0.2973,0.3001,0.3026,0.3061,0.3111,0.316,0.3215,0.3231,0.3256,0.329,0.3291,0.3305,0.3315,0.3316,0.3323,0.3326,0.33,0.33,0.3301,0.3301,0,0,0.2714,0.28,0.2807,0.2837,0.2902,0.2935,0.2973,0.3026,0.3048,0.3094,0.3127,0.3189,0.3202,0.3235,0.3265,0.3285,0.3296,0.3297,0.3299,0.3294,0.3335,0.3324,0.3326,0.3311,0.3312,0.3313,0.333,0,0.273,0.2801,0.284,0.2893,0.2932,0.2969,0.3002,0.3045,0.3078,0.3115,0.3152,0.3195,0.3208,0.3228,0.325,0.329,0.3305,0.3289,0.3342,0.3344,0.3327,0.333,0.332,0.3334,0.3333,0.3334,0.3334,0,0.276,0.2804,0.2861,0.292,0.2938,0.2967,0.3017,0.3052,0.3101,0.3124,0.3159,0.3188,0.3229,0.3234,0.3291,0.3279,0.3303,0.3326,0.3327,0.3334,0.3339,0.3337,0.334,0.3341,0.3339,0.3338,0.3338,0,0.2744,0.2817,0.286,0.2884,0.2955,0.2974,0.3004,0.3053,0.3081,0.3125,0.3144,0.3192,0.3219,0.3255,0.3296,0.3296,0.3348,0.3357,0.3368,0.3366,0.3378,0.3377,0.3384,0.3393,0.3392,0.3392,0.3392,0,0.2759,0.2792,0.2854,0.288,0.2918,0.2963,0.2999,0.3032,0.3074,0.3108,0.3142,0.3173,0.3225,0.3262,0.3294,0.3335,0.3347,0.3366,0.3374,0.3363,0.3361,0.338,0.338,0.3393,0.3393,0.3393,0.3393,0,0.2747,0.279,0.284,0.2901,0.2917,0.2942,0.2995,0.3022,0.3056,0.3097,0.3109,0.3163,0.3207,0.3251,0.3312,0.3334,0.3374,0.3386,0.3358,0.3362,0.337,0.3368,0.339,0.3395,0.34,0.34,0.34,0,0.2754,0.278,0.2844,0.2868,0.2897,0.2937,0.2965,0.3009,0.3038,0.3094,0.3114,0.3161,0.3201,0.327,0.3315,0.3361,0.3373,0.3377,0.338,0.3368,0.3373,0.3371,0.3373,0.3376,0.3376,0.3376,0.3375,0,0.2761,0.278,0.282,0.2867,0.29,0.2939,0.298,0.2998,0.3049,0.3079,0.3125,0.3156,0.3216,0.3262,0.3313,0.3344,0.3368,0.3374,0.3379,0.3368,0.335,0.3359,0.3354,0.3373,0.3374,0.3374,0.3374,0.3374,0.2759,0.2783,0.2831,0.2874,0.2909,0.2945,0.2973,0.3009,0.3048,0.3101,0.3124,0.317,0.3216,0.3287,0.3317,0.3353,0.3359,0.3367,0.3368,0.3369,0.3367,0.3344,0.3362,0.3363,0.3363,0.3363,0.3363,0,0.2767,0.2799,0.2838,0.2893,0.2926,0.2945,0.299,0.3017,0.3056,0.3098,0.3136,0.3187,0.3231,0.3278,0.3325,0.3344,0.3356,0.3355,0.3354,0.3361,0.3359,0.335,0.3344,0.3344,0.3344,0.3344,0.3344,0.3344,0.2775,0.2817,0.2842,0.2901,0.2933,0.2978,0.3001,0.3035,0.3068,0.3124,0.316,0.319,0.3233,0.3283,0.3324,0.3336,0.3352,0.3347,0.3363,0.336,0.3361,0.3362,0.3354,0.335,0.335,0.3362,0.3362,0.3362]},{"header":{"parameterUnit":"m.s-1","parameterCategory":1,"la1":30.2991,"la2":30.254,"lo1":-89.0895,"lo2":-89.0444,"dy":0.0017,"dx":0.0017,"nx":28,"ny":28,"refTime":"2023-08-01T03:00:00:Z","depth":0,"parameterNumber":3,"parameterNumberName":"V-component_of_WINDS"},"data":[0,0,0,0,0,0,0,0,0,0,0,0,0,0,0,0,0,0,0,0,0,0,0,0,0,0,0,0,0,0,0,0,0,0,0,0,0,0,0,0,0,0,0,0,0,0,0,0,0,0,0,0,0,0,0,0,0,0,3.387,3.387,0,3.3823,3.3823,3.3822,3.3776,3.3776,3.3775,3.3774,3.3726,3.3725,3.3724,0,0,0,0,0,0,0,0,0,0,0,0,0,3.3919,3.3918,3.387,3.387,3.3869,3.3823,3.3823,3.3822,3.3776,3.3775,3.3775,3.3774,3.3726,3.3725,3.3724,0,0,0,0,0,0,0,0,0,0,0,0,0,3.3888,3.3918,3.387,3.3841,3.3838,3.3824,3.3823,3.3822,3.3776,3.3775,3.3775,3.3774,3.3726,3.3725,3.3724,3.3735,0,0,3.3721,3.372,0,0,0,0,0,0,0,0,3.3889,3.3886,3.3846,3.3843,3.3839,3.3805,3.3822,3.3793,3.3777,3.38,3.3774,3.3773,3.3753,3.3749,3.3742,3.3733,3.3731,3.372,3.372,3.3719,3.3719,0,0,0,0,0,0,0,3.3892,3.3888,3.3852,3.3845,3.3841,3.3829,3.3824,3.3816,3.3782,3.3798,3.3794,3.3789,3.3751,3.3744,3.3741,3.373,3.372,3.3719,3.3719,3.3718,3.3725,3.3726,0,0,0,0,0,0,3.3899,3.389,3.3853,3.385,3.3863,3.3829,3.3823,3.3817,3.3782,3.3775,3.379,3.3787,3.3746,3.3742,3.3739,3.3748,3.3719,3.3718,3.3718,3.3724,3.3725,3.3726,0,0,0,0,0,0,3.39,3.3896,3.3855,3.3869,3.3863,3.3829,3.3822,3.3816,3.3809,3.3776,3.3769,3.3789,3.3745,3.3741,3.3736,3.3745,3.3718,3.3717,3.3723,3.3724,3.3726,3.3767,0,0,0,0,0,0,3.3901,3.3896,3.3901,3.387,3.3862,3.3853,3.3823,3.3816,3.3807,3.3803,3.3773,3.3768,3.3744,3.3738,3.3735,3.3743,3.3716,3.3722,3.3724,3.3725,3.3764,3.3769,3.3773,0,0,0,0,0,3.3903,3.3914,3.3901,3.3897,3.3867,3.3854,3.385,3.3823,3.3808,3.3812,3.379,3.3769,3.3745,3.3738,3.3734,3.3742,3.3721,3.3723,3.3725,3.3762,3.3768,3.3773,0,0,0,0,0,0,3.3947,3.391,3.3895,3.3896,3.3879,3.3846,3.385,3.383,3.3816,3.3813,3.3779,3.3773,3.3772,3.3757,3.3749,3.375,3.373,3.3731,3.376,3.3765,3.377,3.3772,3.3715,0,0,0,0,0,3.3957,3.395,3.3918,3.3922,3.3914,3.3884,3.3877,3.3858,3.3838,3.383,3.3808,3.379,3.3778,3.3771,3.3759,3.3763,3.3754,3.3766,3.3771,3.3775,3.3775,3.3774,3.3778,3.3732,3.3732,3.3732,0,0,3.3977,3.3956,3.3954,3.393,3.3914,3.3907,3.3878,3.3872,3.3865,3.3829,3.3823,3.3806,3.3784,3.3783,3.3781,3.377,3.3787,3.3777,3.3781,3.3779,3.3777,3.3781,3.3785,3.3733,3.3733,3.3733,0,0,3.401,3.3994,3.3995,3.398,3.3956,3.3936,3.3936,3.3907,3.3894,3.3887,3.386,3.3852,3.3833,3.3817,3.3807,3.3833,3.3812,3.383,3.3853,3.3852,3.3856,3.3859,3.3866,3.3869,3.3832,3.3832,3.3832,0,3.4038,3.4026,3.3998,3.3993,3.3982,3.395,3.395,3.3936,3.391,3.3903,3.3892,3.3866,3.3849,3.3843,3.3849,3.3843,3.384,3.3832,3.3858,3.386,3.3863,3.3869,3.3872,3.3834,3.3834,3.3833,3.3833,0,3.406,3.4052,3.4056,3.403,3.4021,3.4019,3.399,3.3983,3.3965,3.3946,3.3939,3.3917,3.3898,3.3896,3.3878,3.3887,3.388,3.3864,3.3842,3.387,3.3875,3.3877,3.3837,3.3836,3.3836,3.3835,0,0,3.4117,3.4077,3.4078,3.4066,3.4037,3.403,3.4027,3.4009,3.4003,3.3986,3.398,3.3965,3.3949,3.3938,3.3918,3.3917,3.3937,3.39,3.3899,3.3906,3.3942,3.3953,3.3957,3.3923,3.3924,3.3924,3.3943,0,3.4142,3.4133,3.4108,3.4105,3.4097,3.4066,3.4062,3.4044,3.4026,3.4016,3.3996,3.3985,3.3966,3.3958,3.3957,3.3935,3.3943,3.3933,3.3916,3.3916,3.392,3.396,3.3972,3.3991,3.3946,3.3946,3.3946,0,3.417,3.4155,3.4152,3.4123,3.4119,3.4116,3.4097,3.4088,3.4066,3.4053,3.404,3.4018,3.4011,3.3993,3.3982,3.3975,3.3967,3.3955,3.3956,3.3951,3.3931,3.3954,3.3997,3.3999,3.395,3.3949,3.3949,0,3.4209,3.4188,3.4183,3.4174,3.4141,3.4139,3.4125,3.4103,3.4094,3.4077,3.407,3.4054,3.4044,3.4031,3.4004,3.3994,3.3995,3.3975,3.3982,3.3983,3.3982,3.3982,3.4022,3.3981,3.3981,3.3981,3.3981,0,3.4239,3.4238,3.42,3.4197,3.4194,3.4165,3.4163,3.4147,3.4127,3.4119,3.4092,3.4086,3.4052,3.4041,3.4021,3.4013,3.401,3.3998,3.3992,3.3999,3.4,3.3991,3.3988,3.3982,3.3981,3.3981,3.3981,0,3.4281,3.4256,3.4248,3.4217,3.421,3.4209,3.4182,3.4177,3.4158,3.4149,3.4145,3.4114,3.41,3.4073,3.4051,3.4037,3.4033,3.4025,3.404,3.4036,3.4044,3.4043,3.4077,3.408,3.404,3.404,3.4041,0,3.43,3.4298,3.4267,3.426,3.4247,3.4237,3.4227,3.4199,3.419,3.4165,3.4163,3.4146,3.4131,3.411,3.4085,3.4068,3.4057,3.407,3.4054,3.4061,3.4054,3.4054,3.4053,3.4073,3.4074,3.4074,3.4075,0,3.4336,3.4323,3.4311,3.4293,3.4283,3.4268,3.4251,3.4247,3.4215,3.4206,3.4191,3.4179,3.4157,3.414,3.4119,3.4104,3.4083,3.408,3.4081,3.4086,3.4095,3.4088,3.4048,3.4079,3.4079,3.4078,3.4078,3.4078,3.4365,3.4361,3.4339,3.4325,3.431,3.4296,3.4289,3.4269,3.4257,3.4236,3.422,3.4206,3.4184,3.4154,3.414,3.4128,3.4118,3.4119,3.4119,3.4119,3.4121,3.4099,3.4124,3.4124,3.4124,3.4124,3.4124,0,3.4397,3.4382,3.437,3.4347,3.4337,3.432,3.43,3.4292,3.428,3.4262,3.4248,3.423,3.4214,3.4188,3.4169,3.4164,3.4154,3.416,3.4159,3.4156,3.4132,3.4132,3.4169,3.4169,3.4169,3.4169,3.4169,3.4169,3.4413,3.4405,3.4391,3.4375,3.4359,3.4346,3.4336,3.4322,3.4306,3.4288,3.4275,3.4258,3.4236,3.4216,3.42,3.4193,3.4186,3.4194,3.4184,3.4162,3.4157,3.4153,3.4154,3.4194,3.4194,3.4209,3.4209,3.4209]}]]